This is the latest recevied weather packets stored in our database for station/object K1AWR. If no packets are shown the sender has not sent any weather packets the latest 10 day(s).
| Time | Temp. | Humidity | Pressure | Rain* | Wind** | Luminosity | Snow |
|---|---|---|---|---|---|---|---|
| 1778048970 | 15.56° C | 75% | 1010 hPa | 0 mm | - | 0 W/m² | - |
| 1778048668 | 16.11° C | 75% | 1010.3 hPa | 0 mm | - | 0 W/m² | - |
| 1778048364 | 16.11° C | 75% | 1010.2 hPa | 0 mm | - | 0 W/m² | - |
| 1778048060 | 16.11° C | 75% | 1010.1 hPa | 0 mm | - | 0 W/m² | - |
| 1778047758 | 16.11° C | 75% | 1010.3 hPa | 0 mm | - | 0 W/m² | - |
| 1778047456 | 16.11° C | 74% | 1010.2 hPa | 0 mm | - | 0 W/m² | - |
| 1778047153 | 16.11° C | 74% | 1010.1 hPa | 0 mm | - | 0 W/m² | - |
| 1778046850 | 16.11° C | 74% | 1010.2 hPa | 0 mm | - | 0 W/m² | - |
| 1778046547 | 16.67° C | 74% | 1010.3 hPa | 0 mm | - | 0 W/m² | - |
| 1778046244 | 16.67° C | 73% | 1010.4 hPa | 0 mm | - | 0 W/m² | - |
| 1778045940 | 16.67° C | 73% | 1010.2 hPa | 0 mm | - | 0 W/m² | - |
| 1778045638 | 16.11° C | 74% | 1010.3 hPa | 0 mm | - | 0 W/m² | - |
| 1778045337 | 16.67° C | 73% | 1010.4 hPa | 0 mm | - | 0 W/m² | - |
| 1778045034 | 16.67° C | 73% | 1010.3 hPa | 0 mm | - | 0 W/m² | - |
| 1778044732 | 16.67° C | 73% | 1010.4 hPa | 0 mm | - | 0 W/m² | - |
| 1778044428 | 16.67° C | 72% | 1010.4 hPa | 0 mm | - | 0 W/m² | - |
| 1778044126 | 16.67° C | 72% | 1010.3 hPa | 0 mm | - | 0 W/m² | - |
| 1778043823 | 16.67° C | 72% | 1010.6 hPa | 0 mm | - | 0 W/m² | - |
| 1778043520 | 16.67° C | 71% | 1010.4 hPa | 0 mm | - | 0 W/m² | - |
| 1778043216 | 16.67° C | 71% | 1010.5 hPa | 0 mm | - | 0 W/m² | - |
| 1778042913 | 17.22° C | 70% | 1010.7 hPa | 0 mm | - | 0 W/m² | - |
| 1778042611 | 16.67° C | 70% | 1010.6 hPa | 0 mm | - | 0 W/m² | - |
| 1778042308 | 17.22° C | 69% | 1010.6 hPa | 0 mm | - | 0 W/m² | - |
| 1778042005 | 17.22° C | 68% | 1010.5 hPa | 0 mm | - | 0 W/m² | - |
| 1778041703 | 17.22° C | 68% | 1010.5 hPa | 0 mm | - | 0 W/m² | - |
* Rain latest hour (hover to see other rain measurements)
** Current wind speed in m/s (hover to see current wind gust speed)